Weather History for KGCK - April, 2013

Change the Weather History Date:

Thursday, April 25, 2013

  Actual Average Record
Temperature  
Mean Temperature 51 °F 56 °F  
Max Temperature 67 °F 70 °F 92 °F (2012)
Min Temperature 34 °F 42 °F 28 °F (1978)
Degree Days  
Heating Degree Days 14 10  
Month to date heating degree days 486 332  
Since 1 July heating degree days 5036 5020  
Cooling Degree Days 0 1  
Month to date cooling degree days 0 6  
Year to date cooling degree days 0 6  
Moisture  
Dew Point 20 °F    
Average Humidity 36    
Maximum Humidity 59    
Minimum Humidity 13    
Precipitation  
Precipitation 0.00 in 0.06 in 1.20 in (1990)
Month to date precipitation 0.10 1.38  
Year to date precipitation 0.52 3.72  
Sea Level Pressure  
Sea Level Pressure 30.11 in    
Wind  
Wind Speed 20 mph (South)    
Max Wind Speed 40 mph    
Max Gust Speed 53 mph    
Visibility 10 miles    
Events      
T = Trace of Precipitation, MM = Missing Value Source: NWS Daily Summary

Daily Weather History Graph

Daily Weather History Graph

Search for Another Location

Airport or City:

Trip Planner

Search our weather history database for the weather conditions in past years. The results will help you decide how hot, cold, wet, or windy it might be!

Date:

Astronomy

Apr. 25, 2013 Rise Set
Actual Time 6:53 AM CDT 8:28 PM CDT
Civil Twilight 6:25 AM CDT 8:56 PM CDT
Nautical Twilight 5:52 AM CDT 9:29 PM CDT
Astronomical Twilight 5:17 AM CDT 10:05 PM CDT
Moon 8:43 PM CDT 6:38 AM CDT
Length of Visible Light 14h 30m
Length of Day
13h 34m
Full, 100% of the Moon is Illuminated
Apr 25
Full
Apr 25
Full
May 2
Last Quarter
May 9
New
May 17
First Quarter

Hourly Weather History & Observations

Time (CDT) Temp. Windchill Dew Point Humidity Pressure Visibility Wind Dir Wind Speed Gust Speed Precip Events Conditions
12:54 AM 41.0 °F 36.4 °F 21.9 °F 47% 30.27 in 10.0 mi South 6.9 mph - N/A   Clear
1:54 AM 37.0 °F 32.4 °F 21.9 °F 54% 30.26 in 10.0 mi South 5.8 mph - N/A   Clear
2:54 AM 39.0 °F 34.8 °F 21.0 °F 49% 30.24 in 10.0 mi SSW 5.8 mph - N/A   Clear
3:54 AM 39.0 °F 34.0 °F 21.0 °F 49% 30.23 in 10.0 mi South 6.9 mph - N/A   Clear
4:54 AM 35.1 °F 28.6 °F 23.0 °F 61% 30.23 in 10.0 mi SSW 8.1 mph - N/A   Clear
5:54 AM 36.0 °F 29.0 °F 23.0 °F 59% 30.23 in 10.0 mi SSW 9.2 mph - N/A   Clear
6:54 AM 35.1 °F 27.9 °F 23.0 °F 61% 30.23 in 10.0 mi SSW 9.2 mph - N/A   Clear
7:54 AM 37.9 °F 31.5 °F 25.0 °F 60% 30.23 in 10.0 mi South 9.2 mph - N/A   Clear
8:54 AM 45.0 °F 38.9 °F 25.0 °F 46% 30.22 in 10.0 mi SSW 12.7 mph 19.6 mph N/A   Clear
9:54 AM 53.1 °F - 23.0 °F 31% 30.20 in 10.0 mi SSW 19.6 mph 31.1 mph N/A   Clear
10:54 AM 57.0 °F - 21.9 °F 26% 30.19 in 10.0 mi SSW 24.2 mph 29.9 mph N/A   Clear
11:54 AM 63.0 °F - 21.9 °F 21% 30.15 in 10.0 mi SSW 27.6 mph 38.0 mph N/A   Clear
12:54 PM 64.9 °F - 21.0 °F 19% 30.14 in 10.0 mi SSW 25.3 mph 36.8 mph N/A   Clear
1:54 PM 63.0 °F - 17.1 °F 17% 30.12 in 10.0 mi South 27.6 mph 39.1 mph N/A   Clear
2:54 PM 62.1 °F - 15.1 °F 16% 30.08 in 10.0 mi South 31.1 mph 38.0 mph N/A   Clear
3:54 PM 64.0 °F - 12.0 °F 13% 30.02 in 8.0 mi SSW 35.7 mph 47.2 mph N/A   Scattered Clouds
4:54 PM 62.1 °F - 16.0 °F 17% 30.02 in 10.0 mi South 27.6 mph 34.5 mph N/A   Clear
5:54 PM 62.1 °F - 19.0 °F 19% 29.98 in 10.0 mi South 29.9 mph 39.1 mph N/A   Clear
6:54 PM 63.0 °F - 14.0 °F 15% 29.94 in 7.0 mi South 25.3 mph 38.0 mph N/A   Partly Cloudy
7:54 PM 60.1 °F - 15.1 °F 17% 29.93 in 10.0 mi South 27.6 mph 38.0 mph N/A   Clear
8:54 PM 59.0 °F - 19.0 °F 21% 29.94 in 10.0 mi South 26.5 mph 33.4 mph N/A   Clear
9:54 PM 57.0 °F - 21.0 °F 25% 29.96 in 10.0 mi South 25.3 mph 36.8 mph N/A   Partly Cloudy
10:54 PM 55.0 °F - 21.9 °F 28% 29.97 in 10.0 mi South 23.0 mph 29.9 mph N/A   Clear
11:54 PM 53.1 °F - 23.0 °F 31% 29.98 in 10.0 mi South 15.0 mph 23.0 mph N/A   Clear